This is the latest recevied weather packets stored in our database for station/object KD4IZ-13. If no packets are shown the sender has not sent any weather packets the latest 10 day(s).
| Time | Temp. | Humidity | Pressure | Rain* | Wind** | Luminosity | Snow |
|---|---|---|---|---|---|---|---|
| 1777547697 | 10° C | 99% | 1009.7 hPa | 0 mm | - | 50 W/m² | - |
| 1777547394 | 10° C | 99% | 1009.5 hPa | 0 mm | - | 46 W/m² | - |
| 1777547092 | 10° C | 99% | 1009.4 hPa | 0 mm | - | 39 W/m² | - |
| 1777546789 | 10° C | 99% | 1009.5 hPa | 0 mm | - | 33 W/m² | - |
| 1777546486 | 10° C | 99% | 1009.5 hPa | 0 mm | - | 26 W/m² | - |
| 1777546183 | 10° C | 99% | 1009.3 hPa | 0 mm | - | 22 W/m² | - |
| 1777545879 | 10° C | 99% | 1009.3 hPa | 0 mm | - | 19 W/m² | - |
| 1777545576 | 10° C | 99% | 1009.3 hPa | 0 mm | - | 16 W/m² | - |
| 1777545273 | 10° C | 99% | 1009.5 hPa | 0 mm | - | 14 W/m² | - |
| 1777544971 | 10° C | 99% | 1009.4 hPa | 0 mm | - | 11 W/m² | - |
| 1777544667 | 10° C | 99% | 1009.3 hPa | 0 mm | - | 8 W/m² | - |
| 1777544362 | 10° C | 99% | 1009.3 hPa | 0 mm | - | 4 W/m² | - |
| 1777544060 | 10° C | 99% | 1009.3 hPa | 0 mm | - | 2 W/m² | - |
| 1777543757 | 10° C | 99% | 1009.3 hPa | 0 mm | - | 0 W/m² | - |
| 1777543453 | 10° C | 99% | 1009.4 hPa | 0 mm | - | 0 W/m² | - |
| 1777543149 | 10° C | 99% | 1009.2 hPa | 0 mm | - | 0 W/m² | - |
| 1777542845 | 10° C | 99% | 1009.2 hPa | 0 mm | - | 0 W/m² | - |
| 1777542542 | 10° C | 99% | 1009.2 hPa | 0 mm | - | 0 W/m² | - |
| 1777542238 | 10° C | 99% | 1009.4 hPa | 0 mm | - | 0 W/m² | - |
| 1777541935 | 9.44° C | 99% | 1009.5 hPa | 0 mm | - | 0 W/m² | - |
| 1777541632 | 9.44° C | 99% | 1009.5 hPa | 0 mm | - | 0 W/m² | - |
| 1777541329 | 10° C | 99% | 1009.2 hPa | 0 mm | - | 0 W/m² | - |
| 1777541025 | 10° C | 99% | 1009.3 hPa | 0 mm | - | 0 W/m² | - |
| 1777540722 | 10° C | 99% | 1009.3 hPa | 0 mm | - | 0 W/m² | - |
| 1777540420 | 10° C | 99% | 1009.4 hPa | 0 mm | - | 0 W/m² | - |
* Rain latest hour (hover to see other rain measurements)
** Current wind speed in m/s (hover to see current wind gust speed)